Location: Bishopstone
(51.0167°N, 1.9000°W)
Time: 17:48:11
(UTC+00:00)

Cosmos 1455 Rocket - Pass Details

Date: 16 September 2019
Orbit: 605 x 630 km, 82.5° (Epoch: 19 October)

Event Time Altitude Azimuth Distance (km) Brightness Sun altitude
Exits shadow 19:44:40 22° 116° (ESE) 1,384 4.2 -13.7°
Maximum altitude 19:46:03 26° 88° (E) 1,255 4.1 -13.9°
Drops below altitude 10° 19:49:43 10° 32° (NNE) 2,017 5.6 -14.4°
Sets 19:52:15 0° 20° (NNE) 2,932 6.6 -14.8°
